FW6303 Weather Reports


Display with metric or nautical units.
time (UTC)temp
F
wind
direction
speed
MPH
gust
MPH
rain 1hr
in
rain 24hr
in
rain mn
in
humidity
%
barometer
mb
20260905232023 72 69 1.0 4.0 0.43 0.43 0.43 91 1012.7
20260905231026 75 338 13.0 41.0 0.21 0.21 0.21 86 1013.4
20260905230042 83 2 9.0 18.0 0.00 0.00 0.00 66 1013.2
20260905225026 95 355 7.0 16.0 0.00 0.00 0.00 45 1012.5
20260905224021 96 69 0.0 2.0 0.00 0.00 0.00 45 1011.5
20260905223030 96 80 0.0 1.0 0.00 0.00 0.00 44 1011.5
20260905222018 97 67 1.0 2.0 0.00 0.00 0.00 42 1011.5
20260905221029 99 58 1.0 3.0 0.00 0.00 0.00 39 1011.4
20260905220022 100 67 0.0 1.0 0.00 0.00 0.00 38 1011.4
20260905215025 100 22 1.0 3.0 0.00 0.00 0.00 37 1011.3
20260905214017 100 68 1.0 2.0 0.00 0.00 0.00 37 1011.2
20260905213031 101 42 1.0 2.0 0.00 0.00 0.00 36 1011.2
20260905212022 101 75 1.0 3.0 0.00 0.00 0.00 37 1011.2
20260905211029 101 55 2.0 3.0 0.00 0.00 0.00 36 1011.4
20260905210022 101 48 2.0 3.0 0.00 0.00 0.00 36 1011.6
20260905205026 101 80 1.0 3.0 0.00 0.00 0.00 37 1011.7
20260905204019 101 30 1.0 3.0 0.00 0.00 0.00 37 1011.8
20260905203030 101 51 2.0 3.0 0.00 0.00 0.00 35 1011.9
20260905202023 99 106 1.0 2.0 0.00 0.00 0.00 36 1012.1
20260905201029 101 65 1.0 3.0 0.00 0.00 0.00 36 1012.2
20260905200021 101 97 1.0 3.0 0.00 0.00 0.00 37 1012.4
20260905195029 99 102 1.0 3.0 0.00 0.00 0.00 38 1012.6
20260905194019 100 94 1.0 2.0 0.00 0.00 0.00 38 1012.7
20260905193027 101 34 2.0 4.0 0.00 0.00 0.00 36 1012.6
20260905192018 100 84 1.0 3.0 0.00 0.00 0.00 37 1012.8
20260905191026 97 85 1.0 4.0 0.00 0.00 0.00 40 1012.9
20260905190017 100 53 1.0 2.0 0.00 0.00 0.00 38 1013.0
20260905185046 98 85 1.0 2.0 0.00 0.00 0.00 39 1013.3
20260905184041 97 85 1.0 4.0 0.00 0.00 0.00 40 1013.4
20260905183029 97 76 1.0 3.0 0.00 0.00 0.00 41 1013.5
20260905182018 99 76 0.0 1.0 0.00 0.00 0.00 39 1013.7
20260905181030 97 47 2.0 3.0 0.00 0.00 0.00 41 1013.7
20260905180022 99 79 1.0 3.0 0.00 0.00 0.00 40 1013.8
20260905175025 98 42 1.0 3.0 0.00 0.00 0.00 41 1014.0
20260905174018 97 133 1.0 3.0 0.00 0.00 0.00 42 1014.1
20260905173026 96 63 0.0 2.0 0.00 0.00 0.00 44 1014.4
20260905172019 95 83 1.0 6.0 0.00 0.00 0.00 44 1014.4
20260905171029 97 35 2.0 4.0 0.00 0.00 0.00 44 1014.5
20260905170021 96 96 0.0 2.0 0.00 0.00 0.00 45 1014.5
20260905165029 95 46 1.0 4.0 0.00 0.00 0.00 47 1014.5
20260905164018 96 9 3.0 7.0 0.00 0.00 0.00 46 1014.7
20260905163049 94 78 1.0 6.0 0.00 0.00 0.00 49 1014.7
20260905162022 94 52 1.0 3.0 0.00 0.00 0.00 48 1015.0
20260905161051 95 45 2.0 4.0 0.00 0.00 0.00 46 1015.2
20260905160021 95 111 1.0 2.0 0.00 0.00 0.00 48 1015.2
20260905155048 93 62 1.0 3.0 0.00 0.00 0.00 51 1015.4
20260905154020 92 54 2.0 3.0 0.00 0.00 0.00 51 1015.4
20260905153030 92 31 2.0 4.0 0.00 0.00 0.00 51 1015.6
20260905152122 91 66 1.0 2.0 0.00 0.00 0.00 53 1015.5
20260905151029 91 66 1.0 3.0 0.00 0.00 0.00 53 1015.7
20260905150022 90 61 1.0 2.0 0.00 0.00 0.00 56 1015.5
20260905145028 89 55 1.0 3.0 0.00 0.00 0.00 56 1015.8
20260905144020 89 55 1.0 3.0 0.00 0.00 0.00 57 1015.7
20260905143052 89 69 1.0 2.0 0.00 0.00 0.00 58 1015.5
20260905142101 87 82 1.0 2.0 0.00 0.00 0.00 60 1015.7